CW9832 Weather Reports


Display with metric or nautical units.
time (UTC)temp
F
wind
direction
speed
MPH
gust
MPH
rain 1hr
in
rain 24hr
in
rain mn
in
humidity
%
barometer
mb
20260508160300 70 77 0.0 8.0 0.00 0.30 0.00 53 1016.2
20260508155242 70 71 0.0 3.0 0.00 0.32 0.00 54 1016.3
20260508154227 70 113 1.0 1.0 0.00 0.35 0.00 56 1016.5
20260508152041 70 118 1.0 8.0 0.00 0.55 0.00 55 1016.6
20260508151048 70 67 1.0 11.0 0.00 0.61 0.00 55 1016.9
20260508150047 71 78 2.0 11.0 0.00 0.62 0.00 55 1016.9
20260508145028 70 108 1.0 9.0 0.00 0.68 0.00 56 1016.9
20260508144018 70 153 1.0 6.0 0.00 0.70 0.00 58 1016.8
20260508143031 69 110 1.0 10.0 0.00 0.72 0.00 57 1016.8
20260508142021 69 55 3.0 10.0 0.00 0.72 0.00 59 1016.9
20260508141005 68 78 1.0 12.0 0.00 0.77 0.00 60 1016.9
20260508140027 68 81 4.0 12.0 0.00 0.83 0.00 58 1017.0
20260508135032 67 72 2.0 10.0 0.00 0.98 0.00 64 1016.9
20260508132852 66 74 1.0 7.0 0.00 1.10 0.00 69 1016.8
20260508131818 66 117 0.0 7.0 0.00 1.12 0.00 69 1016.7
20260508130806 65 74 0.0 0.0 0.00 1.13 0.00 75 1016.5
20260508124651 63 76 0.0 0.0 0.00 1.13 0.00 80 1016.1
20260508123703 62 76 0.0 5.0 0.00 1.13 0.00 84 1016.1
20260508122714 61 319 0.0 3.0 0.00 1.13 0.00 87 1016.2
20260508121729 59 319 0.0 0.0 0.00 1.13 0.00 89 1016.0
20260508120713 59 319 0.0 0.0 0.00 1.13 0.00 89 1016.0
20260508115643 59 319 0.0 0.0 0.00 1.13 0.00 90 1015.8
20260508114625 58 319 0.0 0.0 0.00 1.13 0.00 91 1015.5
20260508113555 57 319 0.0 1.0 0.00 1.13 0.00 92 1015.4
20260508112553 56 319 0.0 0.0 0.00 1.13 0.00 91 1015.0
20260508111612 56 319 0.0 0.0 0.00 1.13 0.00 91 1014.9
20260508110557 56 319 0.0 0.0 0.00 1.14 0.00 90 1014.9
20260508105558 56 319 0.0 0.0 0.00 1.16 0.00 90 1014.6
20260508104535 56 319 0.0 0.0 0.00 1.16 0.00 89 1014.4
20260508103553 56 319 0.0 0.0 0.00 1.17 0.00 90 1014.3
20260508102529 56 319 0.0 0.0 0.00 1.17 0.00 89 1014.1
20260508101548 56 319 0.0 0.0 0.00 1.18 0.00 89 1014.2
20260508100545 56 319 0.0 0.0 0.00 1.18 0.00 89 1014.1
20260508095524 56 319 0.0 0.0 0.00 1.18 0.00 89 1013.8
20260508092227 56 319 0.0 0.0 0.00 1.18 0.00 88 1013.4
20260508090056 57 319 0.0 0.0 0.00 1.19 0.00 88 1013.2
20260508085120 57 319 0.0 0.0 0.00 1.22 0.00 87 1013.0
20260508084051 57 319 0.0 0.0 0.00 1.28 0.00 87 1013.0
20260508083019 57 319 0.0 0.0 0.00 1.36 0.00 86 1012.8
20260508081952 58 319 0.0 0.0 0.00 1.38 0.00 85 1012.9
20260508080948 58 319 0.0 0.0 0.00 1.40 0.00 86 1012.8
20260508073702 58 319 0.0 0.0 0.00 1.46 0.00 85 1012.8
20260508072657 59 319 0.0 0.0 0.00 1.47 0.00 86 1012.7
20260508070608 59 321 0.0 4.0 0.00 1.48 0.00 84 1012.7
20260508065547 59 321 0.0 0.0 0.00 1.48 0.00 84 1012.8
20260508064528 59 321 0.0 2.0 0.00 1.49 0.00 84 1012.6
20260508062426 60 321 0.0 0.0 0.00 1.49 0.00 82 1012.5
20260508061358 61 321 0.0 0.0 0.00 1.49 0.00 80 1012.7
20260508055234 62 321 0.0 0.0 0.00 1.49 0.00 79 1012.9
20260508054209 62 321 0.0 0.0 0.00 1.49 0.00 80 1013.0
20260508053145 62 321 0.0 0.0 0.00 1.49 0.00 77 1012.8
20260508052138 62 321 0.0 5.0 0.00 1.49 0.00 77 1012.6
20260508051154 63 321 0.0 7.0 0.00 1.49 0.00 80 1012.7
20260508050140 63 324 0.0 0.0 0.00 1.49 0.00 78 1012.5
20260508045204 63 323 0.0 3.0 0.00 1.49 0.00 83 1012.8
20260508044218 64 323 0.0 0.0 0.00 1.49 0.00 80 1012.6
20260508043147 64 324 0.0 0.0 0.00 1.49 0.00 78 1012.4
20260508042206 65 324 0.0 5.0 0.00 1.49 0.00 78 1012.4
20260508041150 65 314 0.0 8.0 0.00 1.49 0.00 78 1012.1
20260508040126 65 332 0.0 3.0 0.00 1.49 0.00 79 1012.2
20260508035119 66 318 0.0 3.0 0.00 1.49 1.49 78 1012.2
20260508032957 66 338 0.0 3.0 0.00 1.49 1.49 76 1012.2
20260508031951 67 316 1.0 10.0 0.00 1.49 1.49 76 1012.0
20260508030957 67 355 2.0 10.0 0.00 1.49 1.49 76 1012.0
20260508025937 67 300 1.0 13.0 0.00 1.49 1.49 77 1012.0
20260508024922 68 306 2.0 13.0 0.00 1.49 1.49 77 1011.9
20260508023848 68 321 1.0 9.0 0.00 1.49 1.49 76 1011.6
20260508021729 69 311 2.0 16.0 0.00 1.49 1.49 77 1011.4
20260508020716 70 325 2.0 16.0 0.00 1.49 1.49 78 1011.2
20260508014528 70 327 2.0 13.0 0.00 1.49 1.49 81 1010.9
20260508013516 71 309 1.0 2.0 0.00 1.49 1.49 82 1010.5
20260508011357 71 296 0.0 2.0 0.00 1.49 1.49 82 1010.0
20260508010355 71 282 0.0 7.0 0.00 1.49 1.49 82 1009.7
20260508005336 72 286 0.0 6.0 0.00 1.49 1.49 82 1009.6
20260508004332 72 277 0.0 0.0 0.00 1.49 1.49 82 1009.5
20260508003313 72 296 0.0 11.0 0.00 1.49 1.49 82 1009.4
20260508002254 73 290 0.0 11.0 0.00 1.49 1.49 83 1009.1
20260508000121 74 282 0.0 6.0 0.00 1.49 1.49 81 1008.7
20260507235046 74 241 0.0 3.0 0.00 1.49 1.49 81 1008.7
20260507234047 74 258 1.0 11.0 0.00 1.49 1.49 80 1008.6
20260507233027 75 257 0.0 11.0 0.00 1.49 1.49 81 1008.4
20260507231954 75 298 0.0 10.0 0.00 1.49 1.49 83 1008.5
20260507231019 75 272 0.0 3.0 0.00 1.49 1.49 81 1008.4
20260507230040 75 274 0.0 8.0 0.00 1.49 1.49 80 1008.3
20260507225046 76 254 0.0 15.0 0.00 1.49 1.49 80 1008.3
20260507224027 76 278 2.0 15.0 0.00 1.49 1.49 80 1008.4
20260507223034 76 250 1.0 10.0 0.00 1.49 1.49 80 1008.5
20260507222046 76 268 1.0 9.0 0.00 1.49 1.49 80 1008.5
20260507221030 76 287 1.0 17.0 0.00 1.49 1.49 81 1008.3
20260507214907 76 279 0.0 8.0 0.00 1.49 1.49 82 1008.3
20260507213905 76 244 1.0 13.0 0.00 1.49 1.49 80 1008.3
20260507212926 76 243 0.0 6.0 0.00 1.49 1.49 81 1008.2
20260507211937 76 272 1.0 11.0 0.00 1.49 1.49 81 1008.3
20260507210920 75 296 1.0 13.0 0.00 1.49 1.49 83 1008.3
20260507205921 74 283 0.0 10.0 0.00 1.49 1.49 86 1008.3
20260507204937 74 248 0.0 7.0 0.00 1.49 1.49 88 1008.3
20260507203958 74 249 0.0 2.0 0.00 1.49 1.49 88 1008.4
20260507202946 73 250 0.0 3.0 0.00 1.49 1.49 89 1008.4
20260507201956 73 256 0.0 0.0 0.00 1.49 1.49 89 1008.5
20260507200930 72 278 0.0 6.0 0.00 1.49 1.49 90 1008.4
20260507195949 72 281 0.0 3.0 0.00 1.49 1.49 90 1008.6
20260507194931 73 281 1.0 11.0 0.00 1.49 1.49 89 1008.6
20260507192819 73 300 1.0 12.0 0.00 1.49 1.49 90 1008.6
20260507185604 73 244 0.0 8.0 0.00 1.49 1.49 93 1008.6
20260507184548 72 286 0.0 4.0 0.00 1.49 1.49 93 1008.6
20260507183611 72 195 0.0 4.0 0.00 1.49 1.49 94 1008.4
20260507182558 72 232 0.0 2.0 0.00 1.49 1.49 94 1008.7
20260507181622 72 250 0.0 0.0 0.00 1.49 1.49 94 1008.8
20260507180636 71 165 0.0 0.0 0.00 1.49 1.49 94 1008.8
20260507175602 69 224 0.0 0.0 0.00 1.49 1.49 93 1008.8
20260507174552 69 248 0.0 0.0 0.04 1.49 1.49 94 1008.6
20260507173605 68 250 0.0 2.0 0.10 1.47 1.49 93 1008.5
20260507172622 68 260 0.0 0.0 0.05 1.45 1.48 93 1008.4
20260507171642 68 294 0.0 0.0 0.12 1.42 1.46 93 1009.1
20260507165522 68 294 0.0 0.0 0.21 1.37 1.40 93 1009.3
20260507164504 68 294 0.0 0.0 0.13 1.33 1.38 93 1009.3
20260507163523 68 294 0.0 0.0 0.13 1.26 1.35 93 1009.6
20260507162516 68 294 0.0 0.0 0.27 1.20 1.30 93 1009.7
20260507161444 68 292 0.0 6.0 0.12 1.18 1.22 93 1009.8